Location: Sobotiste
(48.7170°N, 17.4000°E)
Time: 18:15:42
(UTC+02:00)

CUTE-I - Pass Details

Date: 16 March 2026
Orbit: 804 x 818 km, 98.7° (Epoch: 18 April)

Event Time Altitude Azimuth Distance (km) Brightness Sun altitude
Rises 18:37:11 0° 210° (SSW) 3,317 ? -7.4°
Reaches altitude 10° 18:40:18 10° 229° (SW) 2,389 ? -8.0°
Maximum altitude 18:43:48 18° 271° (W) 1,900 ? -8.5°
Drops below altitude 10° 18:47:20 10° 313° (NW) 2,396 ? -9.1°
Sets 18:50:28 0° 332° (NNW) 3,331 ? -9.6°
